CST,Max TemperatureF,Mean TemperatureF,Min TemperatureF,Max Dew PointF,MeanDew PointF,Min DewpointF,Max Humidity, Mean Humidity, Min Humidity, Max Sea Level PressureIn, Mean Sea Level PressureIn, Min Sea Level PressureIn, Max VisibilityMiles, Mean VisibilityMiles, Min VisibilityMiles, Max Wind SpeedMPH, Mean Wind SpeedMPH, Max Gust SpeedMPH,PrecipitationIn, CloudCover, Events, WindDirDegrees
2013-1-1,48,36,23,30,25,20,88,61,36,30.24,30.15,30.02,10,10,9,13,6,,0.00,1,,31
2013-1-2,50,36,21,25,23,20,92,61,35,30.29,30.21,30.13,10,10,8,9,5,,0.00,0,,60
2013-1-3,35,32,28,31,28,21,100,87,61,30.45,30.38,30.25,10,4,0,12,7,,0.11,7,Fog-Snow,64
2013-1-4,33,30,27,31,28,26,100,93,85,30.45,30.37,30.29,10,7,1,9,4,,0.03,7,Snow,151
2013-1-5,50,37,24,31,27,21,100,80,41,30.34,30.27,30.20,10,8,2,9,5,,0.00,0,,245
2013-1-6,50,38,25,27,24,22,92,64,33,30.47,30.35,30.23,10,10,10,8,6,,0.00,0,,40
2013-1-7,52,42,30,31,27,24,85,62,41,30.22,30.05,29.94,10,10,10,17,8,24,0.00,0,,115
2013-1-8,46,38,30,39,33,27,93,76,66,30.07,29.95,29.88,10,10,10,9,5,,0.00,8,,26
2013-1-9,45,42,39,43,40,37,100,90,80,30.20,30.09,29.99,10,5,2,23,13,31,1.06,8,Rain,8
2013-1-10,61,52,41,40,38,36,86,63,39,29.91,29.87,29.85,10,10,10,16,9,,0.00,0,,191
2013-1-11,70,54,39,41,36,27,93,64,21,29.83,29.75,29.65,10,10,10,13,7,23,0.00,0,,161
2013-1-12,51,42,33,36,20,12,76,45,23,29.99,29.86,29.79,10,10,10,15,7,23,0.00,0,,327
2013-1-13,42,32,21,22,19,15,89,61,35,30.22,30.11,30.00,10,10,10,10,7,,0.00,0,,61
2013-1-14,37,29,21,19,16,11,82,60,38,30.24,30.16,30.07,10,10,10,13,8,,0.00,3,,74
2013-1-15,39,29,19,17,16,15,81,62,38,30.30,30.22,30.16,10,10,10,8,6,,0.00,3,,334
2013-1-16,55,37,19,23,16,7,85,51,21,30.35,30.30,30.22,10,10,10,14,8,21,0.00,0,,291
2013-1-17,59,42,26,26,25,21,84,55,27,30.50,30.43,30.36,10,10,10,7,6,,0.00,0,,33
2013-1-18,61,44,27,30,26,23,89,55,24,30.42,30.28,30.14,10,10,10,12,6,,0.00,0,,140
2013-1-19,70,48,26,30,23,14,92,51,12,30.22,30.15,30.07,10,10,10,12,4,,0.00,0,,326
2013-1-20,64,46,28,24,21,15,72,43,15,30.24,30.14,30.04,10,10,10,9,6,,0.00,0,,8
2013-1-21,55,42,30,29,25,20,75,54,32,30.29,30.19,30.08,10,10,10,14,8,,0.00,0,,33
2013-1-22,68,47,26,39,29,23,89,60,21,30.24,30.16,30.09,10,10,10,10,5,,0.00,0,,119
2013-1-23,75,52,30,41,31,17,100,73,12,30.27,30.18,30.10,10,5,0,12,5,,0.00,2,Fog,307
2013-1-24,80,56,33,40,30,28,85,46,15,30.19,30.10,30.00,10,10,10,20,7,,0.00,0,,283
2013-1-25,75,60,44,49,36,31,68,46,25,30.11,30.05,30.00,10,10,10,13,4,,0.00,1,,352
2013-1-26,69,56,42,55,44,36,90,63,43,30.06,29.97,29.86,10,10,7,14,6,22,0.00,1,,95
2013-1-27,75,60,46,55,46,37,100,72,26,29.99,29.90,29.80,10,3,0,21,5,28,0.00,3,Fog,283
2013-1-28,77,58,39,47,35,23,93,52,15,29.89,29.79,29.67,10,10,10,16,7,25,0.00,0,,230
2013-1-29,54,48,41,42,25,10,69,43,23,29.89,29.73,29.65,10,10,6,37,15,48,0.00,3,,280
2013-1-30,53,40,26,24,13,0,84,41,11,30.19,30.11,29.94,10,10,10,21,11,30,0.00,0,,288
2013-1-31,63,43,23,19,14,11,68,35,14,30.23,30.17,30.12,10,10,8,10,5,,0.00,0,,245